iso_date,epoch_date,Year,Hour,Min,DOY,POS_DOY,Lat,Lon,BP,Ts,Ta,has_bp,has_ts,has_ta,BuoyID,Buoy_Type,Buoy_Owner,Logistics,Hemisphere
2020-12-14T19:59:57Z,1607975997,2020,20,0,349.8333,349.8333,-77.845,166.6512,982.8,-0.4,42.3,yes,yes,yes,300234062881820,unknown,unknown,unknown,South
2020-12-15T18:00:00Z,1608055200,2020,18,0,350.75,350.75,-77.845,166.6512,978.9,-0.3,42.3,yes,yes,yes,300234062881820,unknown,unknown,unknown,South
2020-12-15T19:00:02Z,1608058803,2020,19,0,350.7917,350.7917,-77.845,166.651,978.8,0.3,42.3,yes,yes,yes,300234062881820,unknown,unknown,unknown,South
2020-12-15T19:59:57Z,1608062397,2020,20,0,350.8333,350.8333,-77.8452,166.6512,979.0,0.8,42.3,yes,yes,yes,300234062881820,unknown,unknown,unknown,South
2020-12-15T21:00:00Z,1608066000,2020,21,0,350.875,350.875,-77.845,166.6512,978.8,1.0,42.3,yes,yes,yes,300234062881820,unknown,unknown,unknown,South
2020-12-15T22:00:02Z,1608069603,2020,22,0,350.9167,350.9167,-77.845,166.6512,978.8,0.6,42.3,yes,yes,yes,300234062881820,unknown,unknown,unknown,South
2020-12-15T22:59:57Z,1608073197,2020,23,0,350.9583,350.9583,-77.845,166.6512,978.9,-0.1,42.3,yes,yes,yes,300234062881820,unknown,unknown,unknown,South
2020-12-16T00:00:00Z,1608076800,2020,0,0,351.0,351.0,-77.8452,166.651,979.3,-0.1,42.3,yes,yes,yes,300234062881820,unknown,unknown,unknown,South
2020-12-16T01:00:02Z,1608080403,2020,1,0,351.0417,351.0417,-77.845,166.6512,979.2,-0.4,42.3,yes,yes,yes,300234062881820,unknown,unknown,unknown,South
2020-12-16T01:59:57Z,1608083997,2020,2,0,351.0833,351.0833,-77.8452,166.6512,978.9,-0.8,42.3,yes,yes,yes,300234062881820,unknown,unknown,unknown,South
2020-12-16T03:00:00Z,1608087600,2020,3,0,351.125,351.125,-77.845,166.6512,978.6,-1.2,42.3,yes,yes,yes,300234062881820,unknown,unknown,unknown,South
2020-12-16T04:00:02Z,1608091203,2020,4,0,351.1667,351.1667,-77.845,166.6512,978.5,-1.4,42.3,yes,yes,yes,300234062881820,unknown,unknown,unknown,South
2020-12-16T04:59:57Z,1608094797,2020,5,0,351.2083,351.2083,-77.845,166.6512,978.2,-2.5,42.3,yes,yes,yes,300234062881820,unknown,unknown,unknown,South
2020-12-16T06:00:00Z,1608098400,2020,6,0,351.25,351.25,-77.845,166.6512,978.4,-2.8,42.3,yes,yes,yes,300234062881820,unknown,unknown,unknown,South
2020-12-16T07:00:02Z,1608102003,2020,7,0,351.2917,351.2917,-77.845,166.6512,978.2,-2.8,42.3,yes,yes,yes,300234062881820,unknown,unknown,unknown,South
2020-12-16T10:59:57Z,1608116397,2020,11,0,351.4583,351.4583,-77.8452,166.6512,977.0,-2.2,42.3,yes,yes,yes,300234062881820,unknown,unknown,unknown,South
2020-12-16T12:00:00Z,1608120000,2020,12,0,351.5,351.5,-77.845,166.6512,976.7,-2.3,42.3,yes,yes,yes,300234062881820,unknown,unknown,unknown,South
2020-12-16T13:00:02Z,1608123603,2020,13,0,351.5417,351.5417,-77.845,166.6512,976.4,-2.4,42.3,yes,yes,yes,300234062881820,unknown,unknown,unknown,South
2020-12-16T13:59:57Z,1608127197,2020,14,0,351.5833,351.5833,-77.8452,166.6512,976.1,-2.0,42.3,yes,yes,yes,300234062881820,unknown,unknown,unknown,South
2020-12-16T15:00:00Z,1608130800,2020,15,0,351.625,351.625,-77.845,166.6512,975.8,-1.6,42.3,yes,yes,yes,300234062881820,unknown,unknown,unknown,South
2020-12-16T16:00:02Z,1608134403,2020,16,0,351.6667,351.6667,-77.8452,166.651,975.6,-1.1,42.3,yes,yes,yes,300234062881820,unknown,unknown,unknown,South
2020-12-16T16:59:57Z,1608137997,2020,17,0,351.7083,351.7083,-77.845,166.6512,975.7,-0.9,42.3,yes,yes,yes,300234062881820,unknown,unknown,unknown,South
2020-12-16T18:00:00Z,1608141600,2020,18,0,351.75,351.75,-77.845,166.6512,975.6,-0.9,42.3,yes,yes,yes,300234062881820,unknown,unknown,unknown,South
2020-12-16T19:00:02Z,1608145203,2020,19,0,351.7917,351.7917,-77.845,166.6512,975.6,-0.6,42.3,yes,yes,yes,300234062881820,unknown,unknown,unknown,South
2020-12-16T19:59:57Z,1608148797,2020,20,0,351.8333,351.8333,-77.845,166.6512,975.7,0.0,42.3,yes,yes,yes,300234062881820,unknown,unknown,unknown,South
2020-12-16T21:00:00Z,1608152400,2020,21,0,351.875,351.875,-77.8452,166.651,975.6,0.6,42.3,yes,yes,yes,300234062881820,unknown,unknown,unknown,South
2020-12-16T22:00:02Z,1608156003,2020,22,0,351.9167,351.9167,-77.845,166.6512,976.0,0.5,42.3,yes,yes,yes,300234062881820,unknown,unknown,unknown,South
2020-12-16T22:59:57Z,1608159597,2020,23,0,351.9583,351.9583,-77.8452,166.6512,976.2,0.4,42.3,yes,yes,yes,300234062881820,unknown,unknown,unknown,South
2020-12-17T00:00:00Z,1608163200,2020,0,0,352.0,352.0,-77.845,166.651,976.2,0.3,42.3,yes,yes,yes,300234062881820,unknown,unknown,unknown,South
2020-12-17T01:00:02Z,1608166803,2020,1,0,352.0417,352.0417,-77.8452,166.6512,976.3,0.4,42.3,yes,yes,yes,300234062881820,unknown,unknown,unknown,South
2020-12-17T01:59:57Z,1608170397,2020,2,0,352.0833,352.0833,-77.8452,166.6512,976.3,0.5,42.3,yes,yes,yes,300234062881820,unknown,unknown,unknown,South
2020-12-17T03:00:00Z,1608174000,2020,3,0,352.125,352.125,-77.8452,166.6512,976.3,0.4,42.3,yes,yes,yes,300234062881820,unknown,unknown,unknown,South
2020-12-17T04:00:02Z,1608177603,2020,4,0,352.1667,352.1667,-77.8452,166.6512,976.3,0.4,42.3,yes,yes,yes,300234062881820,unknown,unknown,unknown,South
2020-12-17T04:59:57Z,1608181197,2020,5,0,352.2083,352.2083,-77.8452,166.6512,976.2,0.4,42.3,yes,yes,yes,300234062881820,unknown,unknown,unknown,South
2020-12-17T06:00:00Z,1608184800,2020,6,0,352.25,352.25,-77.845,166.6512,976.4,0.5,42.3,yes,yes,yes,300234062881820,unknown,unknown,unknown,South
2020-12-17T07:00:02Z,1608188403,2020,7,0,352.2917,352.2917,-77.845,166.651,976.6,0.3,42.3,yes,yes,yes,300234062881820,unknown,unknown,unknown,South
2020-12-17T07:59:57Z,1608191997,2020,8,0,352.3333,352.3333,-77.8452,166.6512,976.8,0.0,42.3,yes,yes,yes,300234062881820,unknown,unknown,unknown,South
2020-12-17T09:00:00Z,1608195600,2020,9,0,352.375,352.375,-77.845,166.6512,976.9,-0.5,42.3,yes,yes,yes,300234062881820,unknown,unknown,unknown,South
2020-12-17T10:00:02Z,1608199203,2020,10,0,352.4167,352.4167,-77.8452,166.651,977.1,-0.7,42.3,yes,yes,yes,300234062881820,unknown,unknown,unknown,South
2020-12-17T10:59:57Z,1608202797,2020,11,0,352.4583,352.4583,-77.845,166.6512,977.4,-0.7,42.3,yes,yes,yes,300234062881820,unknown,unknown,unknown,South
2020-12-17T12:00:00Z,1608206400,2020,12,0,352.5,352.5,-77.845,166.6512,977.7,-0.8,42.3,yes,yes,yes,300234062881820,unknown,unknown,unknown,South
2020-12-17T13:00:02Z,1608210003,2020,13,0,352.5417,352.5417,-77.845,166.6512,977.8,-1.0,42.3,yes,yes,yes,300234062881820,unknown,unknown,unknown,South
2020-12-17T13:59:57Z,1608213597,2020,14,0,352.5833,352.5833,-77.845,166.6512,978.0,-1.2,42.3,yes,yes,yes,300234062881820,unknown,unknown,unknown,South
2020-12-17T15:00:00Z,1608217200,2020,15,0,352.625,352.625,-77.845,166.6512,978.4,-1.1,42.3,yes,yes,yes,300234062881820,unknown,unknown,unknown,South
2020-12-17T16:00:02Z,1608220803,2020,16,0,352.6667,352.6667,-77.8452,166.6512,978.8,-1.0,42.3,yes,yes,yes,300234062881820,unknown,unknown,unknown,South
2020-12-17T16:59:57Z,1608224397,2020,17,0,352.7083,352.7083,-77.845,166.651,979.3,-1.1,42.3,yes,yes,yes,300234062881820,unknown,unknown,unknown,South
2020-12-17T18:00:00Z,1608228000,2020,18,0,352.75,352.75,-77.845,166.6512,979.4,-1.2,42.3,yes,yes,yes,300234062881820,unknown,unknown,unknown,South
2020-12-17T19:00:02Z,1608231603,2020,19,0,352.7917,352.7917,-77.845,166.6512,979.5,-1.0,42.3,yes,yes,yes,300234062881820,unknown,unknown,unknown,South
2020-12-17T19:59:57Z,1608235197,2020,20,0,352.8333,352.8333,-77.845,166.6512,979.6,-1.1,42.3,yes,yes,yes,300234062881820,unknown,unknown,unknown,South
2020-12-17T21:00:00Z,1608238800,2020,21,0,352.875,352.875,-77.845,166.6512,979.5,-0.9,42.3,yes,yes,yes,300234062881820,unknown,unknown,unknown,South
2020-12-17T22:00:02Z,1608242403,2020,22,0,352.9167,352.9167,-77.8452,166.6512,979.3,-0.5,42.3,yes,yes,yes,300234062881820,unknown,unknown,unknown,South
2020-12-17T22:59:57Z,1608245997,2020,23,0,352.9583,352.9583,-77.8452,166.6512,979.1,-0.2,42.3,yes,yes,yes,300234062881820,unknown,unknown,unknown,South
2020-12-18T00:00:00Z,1608249600,2020,0,0,353.0,353.0,-77.8452,166.6512,979.0,-0.1,42.3,yes,yes,yes,300234062881820,unknown,unknown,unknown,South
2020-12-18T01:00:02Z,1608253203,2020,1,0,353.0417,353.0417,-77.8452,166.6512,979.0,-0.1,42.3,yes,yes,yes,300234062881820,unknown,unknown,unknown,South
2020-12-18T01:59:57Z,1608256797,2020,2,0,353.0833,353.0833,-77.8452,166.6512,978.8,0.3,42.3,yes,yes,yes,300234062881820,unknown,unknown,unknown,South
2020-12-18T03:00:00Z,1608260400,2020,3,0,353.125,353.125,-77.8452,166.6512,979.4,-0.2,42.3,yes,yes,yes,300234062881820,unknown,unknown,unknown,South
2020-12-18T04:00:02Z,1608264003,2020,4,0,353.1667,353.1667,-77.845,166.651,978.8,0.0,42.3,yes,yes,yes,300234062881820,unknown,unknown,unknown,South
2020-12-18T04:59:57Z,1608267597,2020,5,0,353.2083,353.2083,-77.845,166.6512,978.2,-0.6,42.3,yes,yes,yes,300234062881820,unknown,unknown,unknown,South
2020-12-18T06:00:00Z,1608271200,2020,6,0,353.25,353.25,-77.845,166.6512,978.1,-0.5,42.3,yes,yes,yes,300234062881820,unknown,unknown,unknown,South
2020-12-18T07:00:02Z,1608274803,2020,7,0,353.2917,353.2917,-77.845,166.6512,978.3,-0.1,42.3,yes,yes,yes,300234062881820,unknown,unknown,unknown,South
2020-12-18T07:59:57Z,1608278397,2020,8,0,353.3333,353.3333,-77.8452,166.6512,977.6,0.3,42.3,yes,yes,yes,300234062881820,unknown,unknown,unknown,South
2020-12-18T09:00:00Z,1608282000,2020,9,0,353.375,353.375,-77.8452,166.6512,978.5,-0.1,42.3,yes,yes,yes,300234062881820,unknown,unknown,unknown,South
2020-12-18T10:00:02Z,1608285603,2020,10,0,353.4167,353.4167,-77.8452,166.6512,978.1,-0.5,42.3,yes,yes,yes,300234062881820,unknown,unknown,unknown,South
2020-12-18T10:59:57Z,1608289197,2020,11,0,353.4583,353.4583,-77.845,166.6512,977.8,-0.8,42.3,yes,yes,yes,300234062881820,unknown,unknown,unknown,South
2020-12-18T12:00:00Z,1608292800,2020,12,0,353.5,353.5,-77.8452,166.6512,977.9,-0.8,42.3,yes,yes,yes,300234062881820,unknown,unknown,unknown,South
2020-12-18T13:00:02Z,1608296403,2020,13,0,353.5417,353.5417,-77.8452,166.6512,977.9,-0.8,42.3,yes,yes,yes,300234062881820,unknown,unknown,unknown,South
2020-12-18T13:59:57Z,1608299997,2020,14,0,353.5833,353.5833,-77.8452,166.6512,977.7,-0.9,42.3,yes,yes,yes,300234062881820,unknown,unknown,unknown,South
2020-12-18T15:00:00Z,1608303600,2020,15,0,353.625,353.625,-77.845,166.6512,977.5,-1.0,42.3,yes,yes,yes,300234062881820,unknown,unknown,unknown,South
2020-12-18T16:00:02Z,1608307203,2020,16,0,353.6667,353.6667,-77.845,166.6512,977.0,-1.1,42.3,yes,yes,yes,300234062881820,unknown,unknown,unknown,South
2020-12-18T16:59:57Z,1608310797,2020,17,0,353.7083,353.7083,-77.845,166.6512,976.9,-1.0,42.3,yes,yes,yes,300234062881820,unknown,unknown,unknown,South
2020-12-18T18:00:00Z,1608314400,2020,18,0,353.75,353.75,-77.845,166.6512,976.5,-0.6,42.3,yes,yes,yes,300234062881820,unknown,unknown,unknown,South
2020-12-18T19:00:02Z,1608318003,2020,19,0,353.7917,353.7917,-77.845,166.6512,976.2,-0.7,42.3,yes,yes,yes,300234062881820,unknown,unknown,unknown,South
2020-12-18T19:59:57Z,1608321597,2020,20,0,353.8333,353.8333,-77.845,166.6512,976.1,-0.5,42.3,yes,yes,yes,300234062881820,unknown,unknown,unknown,South
2020-12-18T21:00:00Z,1608325200,2020,21,0,353.875,353.875,-77.845,166.651,975.8,-0.1,42.3,yes,yes,yes,300234062881820,unknown,unknown,unknown,South
2020-12-18T22:00:02Z,1608328803,2020,22,0,353.9167,353.9167,-77.845,166.651,975.9,0.2,42.3,yes,yes,yes,300234062881820,unknown,unknown,unknown,South
2020-12-18T22:59:57Z,1608332397,2020,23,0,353.9583,353.9583,-77.8452,166.651,976.2,0.1,42.3,yes,yes,yes,300234062881820,unknown,unknown,unknown,South
2020-12-19T00:00:00Z,1608336000,2020,0,0,354.0,354.0,-77.845,166.651,975.8,0.1,42.3,yes,yes,yes,300234062881820,unknown,unknown,unknown,South
2020-12-19T01:00:02Z,1608339603,2020,1,0,354.0417,354.0417,-77.8452,166.6512,975.3,0.3,42.3,yes,yes,yes,300234062881820,unknown,unknown,unknown,South
2020-12-19T01:59:57Z,1608343197,2020,2,0,354.0833,354.0833,-77.8452,166.6512,974.8,0.4,42.3,yes,yes,yes,300234062881820,unknown,unknown,unknown,South
2020-12-19T03:00:00Z,1608346800,2020,3,0,354.125,354.125,-77.8452,166.6512,974.6,0.4,42.3,yes,yes,yes,300234062881820,unknown,unknown,unknown,South
2020-12-19T04:00:02Z,1608350403,2020,4,0,354.1667,354.1667,-77.8452,166.6512,974.2,0.4,42.3,yes,yes,yes,300234062881820,unknown,unknown,unknown,South
2020-12-19T04:59:57Z,1608353997,2020,5,0,354.2083,354.2083,-77.8452,166.6512,974.1,0.8,42.3,yes,yes,yes,300234062881820,unknown,unknown,unknown,South
2020-12-19T06:00:00Z,1608357600,2020,6,0,354.25,354.25,-77.845,166.6512,974.0,0.8,42.3,yes,yes,yes,300234062881820,unknown,unknown,unknown,South
2020-12-19T07:00:02Z,1608361203,2020,7,0,354.2917,354.2917,-77.845,166.6512,974.4,0.5,42.3,yes,yes,yes,300234062881820,unknown,unknown,unknown,South
2020-12-19T07:59:57Z,1608364797,2020,8,0,354.3333,354.3333,-77.845,166.6512,974.3,0.3,42.3,yes,yes,yes,300234062881820,unknown,unknown,unknown,South
2020-12-19T09:00:00Z,1608368400,2020,9,0,354.375,354.375,-77.8452,166.6512,973.9,0.1,42.3,yes,yes,yes,300234062881820,unknown,unknown,unknown,South
2020-12-19T10:00:02Z,1608372003,2020,10,0,354.4167,354.4167,-77.8452,166.6512,974.0,0.1,42.3,yes,yes,yes,300234062881820,unknown,unknown,unknown,South
2020-12-19T10:59:57Z,1608375597,2020,11,0,354.4583,354.4583,-77.845,166.6512,973.9,0.1,42.3,yes,yes,yes,300234062881820,unknown,unknown,unknown,South
2020-12-19T12:00:00Z,1608379200,2020,12,0,354.5,354.5,-77.845,166.6512,973.8,0.0,42.3,yes,yes,yes,300234062881820,unknown,unknown,unknown,South
2020-12-19T13:00:02Z,1608382803,2020,13,0,354.5417,354.5417,-77.8452,166.6512,973.7,-0.1,42.3,yes,yes,yes,300234062881820,unknown,unknown,unknown,South
2020-12-19T13:59:57Z,1608386397,2020,14,0,354.5833,354.5833,-77.8452,166.6512,973.8,-0.2,42.3,yes,yes,yes,300234062881820,unknown,unknown,unknown,South
2020-12-19T15:00:00Z,1608390000,2020,15,0,354.625,354.625,-77.845,166.6512,973.8,-0.3,42.3,yes,yes,yes,300234062881820,unknown,unknown,unknown,South
2020-12-19T16:00:02Z,1608393603,2020,16,0,354.6667,354.6667,-77.845,166.6512,973.8,-0.4,42.3,yes,yes,yes,300234062881820,unknown,unknown,unknown,South
2020-12-19T16:59:57Z,1608397197,2020,17,0,354.7083,354.7083,-77.845,166.6512,973.6,-0.3,42.3,yes,yes,yes,300234062881820,unknown,unknown,unknown,South
2020-12-19T18:00:00Z,1608400800,2020,18,0,354.75,354.75,-77.845,166.6512,973.3,-0.1,42.3,yes,yes,yes,300234062881820,unknown,unknown,unknown,South
2020-12-19T19:00:02Z,1608404403,2020,19,0,354.7917,354.7917,-77.8452,166.6512,973.1,0.1,42.3,yes,yes,yes,300234062881820,unknown,unknown,unknown,South
2020-12-19T19:59:57Z,1608407997,2020,20,0,354.8333,354.8333,-77.8452,166.651,973.2,0.5,42.3,yes,yes,yes,300234062881820,unknown,unknown,unknown,South
2020-12-19T21:00:00Z,1608411600,2020,21,0,354.875,354.875,-77.845,166.651,973.4,1.2,42.3,yes,yes,yes,300234062881820,unknown,unknown,unknown,South
2020-12-19T22:00:02Z,1608415203,2020,22,0,354.9167,354.9167,-77.845,166.6512,973.6,1.1,42.3,yes,yes,yes,300234062881820,unknown,unknown,unknown,South
2020-12-19T22:59:57Z,1608418797,2020,23,0,354.9583,354.9583,-77.845,166.651,973.8,1.3,42.3,yes,yes,yes,300234062881820,unknown,unknown,unknown,South
2020-12-20T00:00:00Z,1608422400,2020,0,0,355.0,355.0,-77.8452,166.651,973.6,1.4,42.3,yes,yes,yes,300234062881820,unknown,unknown,unknown,South
2020-12-20T01:00:02Z,1608426003,2020,1,0,355.0417,355.0417,-77.8452,166.6512,974.0,1.9,42.3,yes,yes,yes,300234062881820,unknown,unknown,unknown,South
2020-12-20T01:59:57Z,1608429597,2020,2,0,355.0833,355.0833,-77.8452,166.6512,973.9,2.3,42.3,yes,yes,yes,300234062881820,unknown,unknown,unknown,South
2020-12-20T03:00:00Z,1608433200,2020,3,0,355.125,355.125,-77.8452,166.6512,973.7,2.4,42.3,yes,yes,yes,300234062881820,unknown,unknown,unknown,South
2020-12-20T04:00:02Z,1608436803,2020,4,0,355.1667,355.1667,-77.8452,166.6512,973.6,2.4,42.3,yes,yes,yes,300234062881820,unknown,unknown,unknown,South
2020-12-20T04:59:57Z,1608440397,2020,5,0,355.2083,355.2083,-77.8452,166.6512,973.4,2.6,42.3,yes,yes,yes,300234062881820,unknown,unknown,unknown,South
2020-12-20T06:00:00Z,1608444000,2020,6,0,355.25,355.25,-77.845,166.6512,973.4,2.4,42.3,yes,yes,yes,300234062881820,unknown,unknown,unknown,South
2020-12-20T07:00:02Z,1608447603,2020,7,0,355.2917,355.2917,-77.845,166.6512,973.2,2.4,42.3,yes,yes,yes,300234062881820,unknown,unknown,unknown,South
2020-12-20T07:59:57Z,1608451197,2020,8,0,355.3333,355.3333,-77.8452,166.6512,974.0,2.3,42.3,yes,yes,yes,300234062881820,unknown,unknown,unknown,South
2020-12-20T09:00:00Z,1608454800,2020,9,0,355.375,355.375,-77.8452,166.6512,974.9,1.6,42.3,yes,yes,yes,300234062881820,unknown,unknown,unknown,South
2020-12-20T10:00:02Z,1608458403,2020,10,0,355.4167,355.4167,-77.8452,166.6512,975.4,1.0,42.3,yes,yes,yes,300234062881820,unknown,unknown,unknown,South
2020-12-20T10:59:57Z,1608461997,2020,11,0,355.4583,355.4583,-77.845,166.6512,976.1,0.8,42.3,yes,yes,yes,300234062881820,unknown,unknown,unknown,South
2020-12-20T12:00:00Z,1608465600,2020,12,0,355.5,355.5,-77.845,166.6512,976.3,0.7,42.3,yes,yes,yes,300234062881820,unknown,unknown,unknown,South
2020-12-20T13:00:02Z,1608469203,2020,13,0,355.5417,355.5417,-77.8452,166.6512,976.0,0.6,42.3,yes,yes,yes,300234062881820,unknown,unknown,unknown,South
2020-12-20T13:59:57Z,1608472797,2020,14,0,355.5833,355.5833,-77.845,166.6512,975.6,0.4,42.3,yes,yes,yes,300234062881820,unknown,unknown,unknown,South
2020-12-20T15:00:00Z,1608476400,2020,15,0,355.625,355.625,-77.8452,166.6512,975.7,0.4,42.3,yes,yes,yes,300234062881820,unknown,unknown,unknown,South
2020-12-20T16:00:02Z,1608480003,2020,16,0,355.6667,355.6667,-77.845,166.6512,976.1,0.5,42.3,yes,yes,yes,300234062881820,unknown,unknown,unknown,South
2020-12-20T16:59:57Z,1608483597,2020,17,0,355.7083,355.7083,-77.8452,166.6512,976.6,0.5,42.3,yes,yes,yes,300234062881820,unknown,unknown,unknown,South
2020-12-20T18:00:00Z,1608487200,2020,18,0,355.75,355.75,-77.8452,166.651,977.5,0.2,42.3,yes,yes,yes,300234062881820,unknown,unknown,unknown,South
2020-12-20T19:00:02Z,1608490803,2020,19,0,355.7917,355.7917,-77.845,166.6512,978.0,-0.1,42.3,yes,yes,yes,300234062881820,unknown,unknown,unknown,South
2020-12-20T19:59:57Z,1608494397,2020,20,0,355.8333,355.8333,-77.845,166.6512,978.0,0.0,42.3,yes,yes,yes,300234062881820,unknown,unknown,unknown,South
2020-12-20T21:00:00Z,1608498000,2020,21,0,355.875,355.875,-77.845,166.651,978.7,0.2,42.3,yes,yes,yes,300234062881820,unknown,unknown,unknown,South
2020-12-20T22:00:02Z,1608501603,2020,22,0,355.9167,355.9167,-77.8452,166.651,978.7,0.5,42.3,yes,yes,yes,300234062881820,unknown,unknown,unknown,South
2020-12-20T22:59:57Z,1608505197,2020,23,0,355.9583,355.9583,-77.8452,166.651,979.1,0.7,42.3,yes,yes,yes,300234062881820,unknown,unknown,unknown,South
2020-12-21T00:00:00Z,1608508800,2020,0,0,356.0,356.0,-77.845,166.651,979.5,0.9,42.3,yes,yes,yes,300234062881820,unknown,unknown,unknown,South
2020-12-21T01:00:02Z,1608512403,2020,1,0,356.0417,356.0417,-77.8452,166.6512,979.6,1.1,42.3,yes,yes,yes,300234062881820,unknown,unknown,unknown,South
2020-12-21T01:59:57Z,1608515997,2020,2,0,356.0833,356.0833,-77.8452,166.6512,979.5,1.4,42.3,yes,yes,yes,300234062881820,unknown,unknown,unknown,South
2020-12-21T03:00:00Z,1608519600,2020,3,0,356.125,356.125,-77.8452,166.651,979.5,1.4,42.3,yes,yes,yes,300234062881820,unknown,unknown,unknown,South
2020-12-21T04:00:02Z,1608523203,2020,4,0,356.1667,356.1667,-77.8452,166.6512,979.1,1.5,42.3,yes,yes,yes,300234062881820,unknown,unknown,unknown,South
2020-12-21T04:59:57Z,1608526797,2020,5,0,356.2083,356.2083,-77.845,166.6512,978.9,1.7,42.3,yes,yes,yes,300234062881820,unknown,unknown,unknown,South
2020-12-21T06:00:00Z,1608530400,2020,6,0,356.25,356.25,-77.845,166.6512,978.9,1.4,42.3,yes,yes,yes,300234062881820,unknown,unknown,unknown,South
2020-12-21T07:00:02Z,1608534003,2020,7,0,356.2917,356.2917,-77.8452,166.651,979.2,1.5,42.3,yes,yes,yes,300234062881820,unknown,unknown,unknown,South
2020-12-21T07:59:57Z,1608537597,2020,8,0,356.3333,356.3333,-77.8452,166.6512,979.1,1.5,42.3,yes,yes,yes,300234062881820,unknown,unknown,unknown,South
2020-12-21T09:00:00Z,1608541200,2020,9,0,356.375,356.375,-77.845,166.6512,978.8,1.2,42.3,yes,yes,yes,300234062881820,unknown,unknown,unknown,South
2020-12-21T10:00:02Z,1608544803,2020,10,0,356.4167,356.4167,-77.8452,166.6512,978.7,1.0,42.3,yes,yes,yes,300234062881820,unknown,unknown,unknown,South
2020-12-21T10:59:57Z,1608548397,2020,11,0,356.4583,356.4583,-77.8452,166.6512,978.9,0.7,42.3,yes,yes,yes,300234062881820,unknown,unknown,unknown,South
2020-12-21T12:00:00Z,1608552000,2020,12,0,356.5,356.5,-77.845,166.6512,978.8,0.4,42.3,yes,yes,yes,300234062881820,unknown,unknown,unknown,South
2020-12-21T13:00:02Z,1608555603,2020,13,0,356.5417,356.5417,-77.845,166.6512,979.1,0.2,42.3,yes,yes,yes,300234062881820,unknown,unknown,unknown,South
2020-12-21T13:59:57Z,1608559197,2020,14,0,356.5833,356.5833,-77.8452,166.6512,979.4,0.3,42.3,yes,yes,yes,300234062881820,unknown,unknown,unknown,South
2020-12-21T15:00:00Z,1608562800,2020,15,0,356.625,356.625,-77.845,166.6512,979.6,0.3,42.3,yes,yes,yes,300234062881820,unknown,unknown,unknown,South
2020-12-21T16:00:02Z,1608566403,2020,16,0,356.6667,356.6667,-77.845,166.6512,979.7,0.0,42.3,yes,yes,yes,300234062881820,unknown,unknown,unknown,South
2020-12-21T16:59:57Z,1608569997,2020,17,0,356.7083,356.7083,-77.845,166.6512,980.1,-0.2,42.3,yes,yes,yes,300234062881820,unknown,unknown,unknown,South
2020-12-21T18:00:00Z,1608573600,2020,18,0,356.75,356.75,-77.845,166.6512,980.0,-0.2,42.3,yes,yes,yes,300234062881820,unknown,unknown,unknown,South
2020-12-21T19:00:02Z,1608577203,2020,19,0,356.7917,356.7917,-77.845,166.6512,980.0,-0.1,42.3,yes,yes,yes,300234062881820,unknown,unknown,unknown,South
2020-12-21T19:59:57Z,1608580797,2020,20,0,356.8333,356.8333,-77.845,166.6512,980.1,0.2,42.3,yes,yes,yes,300234062881820,unknown,unknown,unknown,South
2020-12-21T21:00:00Z,1608584400,2020,21,0,356.875,356.875,-77.845,166.6512,980.6,0.2,42.3,yes,yes,yes,300234062881820,unknown,unknown,unknown,South
2020-12-21T22:00:02Z,1608588003,2020,22,0,356.9167,356.9167,-77.8452,166.6512,980.7,0.1,42.3,yes,yes,yes,300234062881820,unknown,unknown,unknown,South
2020-12-21T22:59:57Z,1608591597,2020,23,0,356.9583,356.9583,-77.8452,166.6512,981.3,0.3,42.3,yes,yes,yes,300234062881820,unknown,unknown,unknown,South
2020-12-22T00:00:00Z,1608595200,2020,0,0,357.0,357.0,-77.845,166.651,981.5,0.7,42.3,yes,yes,yes,300234062881820,unknown,unknown,unknown,South
2020-12-22T01:00:02Z,1608598803,2020,1,0,357.0417,357.0417,-77.8452,166.6512,981.6,1.0,42.3,yes,yes,yes,300234062881820,unknown,unknown,unknown,South
2020-12-22T01:59:57Z,1608602397,2020,2,0,357.0833,357.0833,-77.8452,166.6512,981.7,1.2,42.3,yes,yes,yes,300234062881820,unknown,unknown,unknown,South
2020-12-22T03:00:00Z,1608606000,2020,3,0,357.125,357.125,-77.8452,166.6512,981.8,1.5,42.3,yes,yes,yes,300234062881820,unknown,unknown,unknown,South
2020-12-22T04:00:02Z,1608609603,2020,4,0,357.1667,357.1667,-77.8452,166.6512,981.8,1.6,42.3,yes,yes,yes,300234062881820,unknown,unknown,unknown,South
2020-12-22T04:59:57Z,1608613197,2020,5,0,357.2083,357.2083,-77.8452,166.6512,982.1,1.9,42.3,yes,yes,yes,300234062881820,unknown,unknown,unknown,South
2020-12-22T06:00:00Z,1608616800,2020,6,0,357.25,357.25,-77.845,166.6512,982.6,1.9,42.3,yes,yes,yes,300234062881820,unknown,unknown,unknown,South
2020-12-22T07:00:02Z,1608620403,2020,7,0,357.2917,357.2917,-77.8452,166.6512,983.0,1.4,42.3,yes,yes,yes,300234062881820,unknown,unknown,unknown,South
2020-12-22T07:59:57Z,1608623997,2020,8,0,357.3333,357.3333,-77.845,166.6512,982.9,1.2,42.3,yes,yes,yes,300234062881820,unknown,unknown,unknown,South
2020-12-22T09:00:00Z,1608627600,2020,9,0,357.375,357.375,-77.845,166.6512,982.8,1.0,42.3,yes,yes,yes,300234062881820,unknown,unknown,unknown,South
2020-12-22T10:00:02Z,1608631203,2020,10,0,357.4167,357.4167,-77.845,166.6512,982.8,0.6,42.3,yes,yes,yes,300234062881820,unknown,unknown,unknown,South
2020-12-22T10:59:57Z,1608634797,2020,11,0,357.4583,357.4583,-77.8452,166.6512,982.8,0.4,42.3,yes,yes,yes,300234062881820,unknown,unknown,unknown,South